パンスターズ彗星

C/2011 L4 ( PanSTARRS )

English version
Home page
Updated on May 15, 2012

---------------------------------------------------------------------

・ プロフィール

発見日 2011年6月6日
発見光度 19.4等
発見者 Pan-STARRS 1 telescope (Haleakala)

・ 写真集

・ 軌道要素

Epoch 2013 Mar. 9.0 TT = JDT 2456360.5
T 2013 Mar. 10.16256 TT                                 MPC
q   0.3015316            (2000.0)            P               Q
z  -0.0000474      Peri.  333.65183     +0.41006451     +0.10047638
 +/-0.0000032      Node    65.66580     +0.90783233     +0.05058248
e   1.0000143      Incl.   84.20756     -0.08767873     +0.99365281
From 368 observations 2011 May 21-2012 Apr. 29, mean residual 0".4.

・ 星図

・ 光度変化

        m1 = -1.8 + 5 logΔ + 18.0 log r  [   ,-365]  (              〜2012年 3月10日)
        m1 =  4.0 + 5 logΔ + 10.0 log r  [-365,   ]  (2012年 3月10日〜              )

---------------------------------------------------------------------

軌道要素はM.P.E.C. 2012-H90に掲載されたものです。
星図はステラナビゲータ Ver.8 (アストロアーツ) で作成したものです。
光度グラフはComet for Windowsで作成したものです。

---------------------------------------------------------------------

Copyright(C) Seiichi Yoshida (comet@aerith.net). All rights reserved.